User: anonymous   Login
Location: Laverne
(36.7100°N, 99.8930°W)
Time: 02:31:02
(UTC-06:00)
Language:

Iridium 32 - Orbit

View from above orbital plane
View from above orbital plane
View from above satellite
View from above satellite

Ground track
Ground track

The orbit data is extracted from the following two-line orbital elements,

1 24945U 97051B   15030.81180178  .00000372  00000-0  12573-3 0  1860
2 24945 086.3969 290.0837 0002037 097.4970 262.6457 14.34217286909956
Epoch (UTC): 30 January 2015 19:28:59
Eccentricity: 0.0002037
inclination: 86.3969°
perigee height: 776 km
apogee height: 779 km
right ascension of ascending node: 290.0837°
argument of perigee: 97.4970°
revolutions per day: 14.34217286
mean anomaly at epoch: 262.6457°
orbit number at epoch: 90995

The dashed part of the orbit path shows where the satellite is in the earth's shadow,  

DLR